星链-33789 (STARLINK-33789)

导读

STARLINK-33789是美国于2025年4月25日发射的星链卫星,隶属于SpaceX公司开发的星链星座项目。星链项目旨在构建全球卫星互联网星座,为全球提供高速低延迟网络覆盖,尤其是偏远地区提供网络接入服务。该卫星入轨后参与星链星座组网,进一步扩充星链星座规模,提升全球卫星互联网服务能力。

基本信息
目录编号:
63657
目录名称:
STARLINK-33789
国际标识:
2025-083Z
轨道中心:
EARTH
卫星名称:
星链-33789
卫星全名:
星链-33789 (STARLINK-33789)
卫星状态:
在轨 (已飞行504 天)
发射日期:
2025-04-25 UTC
国别 :
美国 (US)
星等 :
--
该卫星已列入 空间交会检测服务 Space Conjunction Data Service (SCDS) ,当前飞行风险评估等级: 无高风险
轨道信息
数据来源 国际轨道数据
星历时间: 2026-09-11T00:51:39+0800
1天前
查看轨道信息
半长轴: 6861.181km
偏心率: 0.0000606
轨道倾角: 43.000°
近地点辐角 258.840°
升交点赤经 40.222°
平近点角 101.239°
近地点: 482.628km
远地点: 483.46km
周期: 94.267分钟
每日圈数: 15.275819
详细信息
固有亮度:
5
最大亮度:
2.5
卫星平台:
Starlink V1.0
覆盖范围:
全球
运营商:
太空探索技术公司
运营商所在国:
美国
制造商(研发单位):
太空探索技术公司
制造商所在国:
美国
使用方式:
暂无
卫星简介
Starlink 计划是 SpaceX 推出的全球卫星互联网项目,通过发射低轨道卫星,为全球尤其是偏远地区提供高速、低延迟的互联网服务。自 2019 年起,Starlink 已部署数千颗卫星,旨在缩小全球数字鸿沟,推动互联网普及。该项目还为军事、航空等行业提供通信支持,带来广泛经济效益。
2D轨道图
3D轨道图
轨道高度分析图
轨道倾角分析图
轨道综合分析图
查看轨道综合分析图
交会数据列表
事件ID 空间交会对象 最接近时刻(TCA) 交会距离 交会风险概率(CRP) 交会风险指数(CRI) 操作
CDM_260911-111605-836106-365721
2026-09-11T
11:16:33+0000
0.412 km
远距离
8.753401E-5 中风险 0.74
CDM_260913-163405-537306-365721
2026-09-13T
16:34:50+0000
0.736 km
远距离
2.963545E-5 中风险 0.64
CDM_260913-164605-807706-365721
2026-09-13T
16:46:29+0000
1.171 km
极远距离
8.477575E-6 低风险 0.54
CDM_260913-080805-807706-365721
2026-09-13T
08:08:39+0000
1.232 km
极远距离
7.134187E-6 低风险 0.52
CDM_260913-222606-163706-365721
2026-09-13T
22:26:46+0000
1.382 km
极远距离
6.757125E-6 低风险 0.52
CDM_260913-191605-817906-365721
2026-09-13T
19:16:37+0000
1.422 km
极远距离
6.005937E-6 低风险 0.51
CDM_260913-181005-796606-365721
2026-09-13T
18:10:23+0000
1.162 km
极远距离
4.971109E-6 低风险 0.49
CDM_260913-205005-817906-365721
2026-09-13T
20:50:47+0000
1.541 km
极远距离
4.631823E-6 低风险 0.48
CDM_260911-133705-836106-365721
2026-09-11T
13:37:47+0000
1.145 km
极远距离
3.544312E-6 低风险 0.46
CDM_260914-061805-609806-365721
2026-09-14T
06:18:39+0000
1.796 km
极远距离
3.009868E-6 低风险 0.45
与全量物体交会距离演化趋势
与全量物体交会风险概率演化趋势